date,time,SUV Intensity [MED/Hr],UV Index,Daily total [MED],Since Last [MED]
03/06/2022,00:08:48,0.000,0.0,0.0,0.0
03/06/2022,00:10:48,-0.000,0.0,0.0,0.0
03/06/2022,00:12:49,-0.000,0.0,0.0,0.0
03/06/2022,00:14:49,0.001,0.0,0.0,0.0
03/06/2022,00:16:49,0.000,0.0,0.0,0.0
03/06/2022,00:18:49,0.001,0.0,0.0,0.0
03/06/2022,00:20:49,0.001,0.0,0.0,0.0
03/06/2022,00:22:48,-0.001,0.0,0.0,0.0
03/06/2022,00:24:49,0.001,0.0,0.0,0.0
03/06/2022,00:26:49,0.000,0.0,0.0,0.0
03/06/2022,00:28:49,0.000,0.0,0.0,0.0
03/06/2022,00:30:47,-0.000,0.0,0.0,0.0
03/06/2022,00:32:49,0.000,0.0,0.0,0.0
03/06/2022,00:34:49,0.000,0.0,0.0,0.0
03/06/2022,00:36:49,0.000,0.0,0.0,0.0
03/06/2022,00:38:48,-0.000,0.0,0.0,0.0
03/06/2022,00:40:49,-0.001,0.0,0.0,0.0
03/06/2022,00:42:49,0.001,0.0,0.0,0.0
03/06/2022,00:44:48,0.000,0.0,0.0,0.0
03/06/2022,00:46:49,0.000,0.0,0.0,0.0
03/06/2022,00:48:49,-0.000,0.0,0.0,0.0
03/06/2022,00:50:49,0.000,0.0,0.0,0.0
03/06/2022,00:52:49,0.000,0.0,0.0,0.0
03/06/2022,00:54:49,0.001,0.0,0.0,0.0
03/06/2022,00:56:49,0.000,0.0,0.0,0.0
03/06/2022,00:58:48,0.000,0.0,0.0,0.0
03/06/2022,01:00:49,0.000,0.0,0.0,0.0
03/06/2022,01:02:49,0.000,0.0,0.0,0.0
03/06/2022,01:04:49,0.000,0.0,0.0,0.0
03/06/2022,01:06:49,0.002,0.0,0.0,0.0
03/06/2022,01:08:48,0.001,0.0,0.0,0.0
03/06/2022,01:10:49,0.000,0.0,0.0,0.0
03/06/2022,01:12:49,-0.000,0.0,0.0,0.0
03/06/2022,01:14:48,0.001,0.0,0.0,0.0
03/06/2022,01:16:49,0.001,0.0,0.0,0.0
03/06/2022,01:18:49,-0.000,0.0,0.0,0.0
03/06/2022,01:20:48,0.002,0.0,0.0,0.0
03/06/2022,01:22:49,0.001,0.0,0.0,0.0
03/06/2022,01:24:49,-0.000,0.0,0.0,0.0
03/06/2022,01:26:49,0.000,0.0,0.0,0.0
03/06/2022,01:28:49,0.001,0.0,0.0,0.0
03/06/2022,01:30:49,0.001,0.0,0.0,0.0
03/06/2022,01:32:48,0.000,0.0,0.0,0.0
03/06/2022,01:34:48,0.000,0.0,0.0,0.0
03/06/2022,01:36:49,0.001,0.0,0.0,0.0
03/06/2022,01:38:49,0.001,0.0,0.0,0.0
03/06/2022,01:40:49,0.000,0.0,0.0,0.0
03/06/2022,01:42:49,0.000,0.0,0.0,0.0
03/06/2022,01:44:49,0.001,0.0,0.0,0.0
03/06/2022,01:46:49,0.001,0.0,0.0,0.0
03/06/2022,01:48:49,-0.000,0.0,0.0,0.0
03/06/2022,01:50:49,0.000,0.0,0.0,0.0
03/06/2022,01:52:48,0.002,0.0,0.0,0.0
03/06/2022,01:54:57,0.001,0.0,0.0,0.0
03/06/2022,01:56:49,0.001,0.0,0.0,0.0
03/06/2022,01:58:49,0.000,0.0,0.0,0.0
03/06/2022,02:00:49,0.001,0.0,0.0,0.0
03/06/2022,02:02:49,0.001,0.0,0.0,0.0
03/06/2022,02:04:57,0.001,0.0,0.0,0.0
03/06/2022,02:06:49,0.001,0.0,0.0,0.0
03/06/2022,02:08:49,0.000,0.0,0.0,0.0
03/06/2022,02:10:49,0.001,0.0,0.0,0.0
03/06/2022,02:12:49,0.000,0.0,0.0,0.0
03/06/2022,02:14:49,0.000,0.0,0.0,0.0
03/06/2022,02:16:57,0.001,0.0,0.0,0.0
03/06/2022,02:18:49,0.000,0.0,0.0,0.0
03/06/2022,02:20:49,0.000,0.0,0.0,0.0
03/06/2022,02:22:49,0.001,0.0,0.0,0.0
03/06/2022,02:24:49,0.001,0.0,0.0,0.0
03/06/2022,02:26:49,0.001,0.0,0.0,0.0
03/06/2022,02:28:49,0.002,0.0,0.0,0.0
03/06/2022,02:30:49,0.001,0.0,0.0,0.0
03/06/2022,02:32:49,0.001,0.0,0.0,0.0
03/06/2022,02:34:49,0.001,0.0,0.0,0.0
03/06/2022,02:36:49,0.001,0.0,0.0,0.0
03/06/2022,02:38:49,0.001,0.0,0.0,0.0
03/06/2022,02:40:49,-0.000,0.0,0.0,0.0
03/06/2022,02:42:49,0.001,0.0,0.0,0.0
03/06/2022,02:44:49,0.000,0.0,0.0,0.0
03/06/2022,02:46:49,0.001,0.0,0.0,0.0
03/06/2022,02:48:57,0.001,0.0,0.0,0.0
03/06/2022,02:50:49,0.001,0.0,0.0,0.0
03/06/2022,02:52:49,0.001,0.0,0.0,0.0
03/06/2022,02:54:49,0.000,0.0,0.0,0.0
03/06/2022,02:56:49,0.000,0.0,0.0,0.0
03/06/2022,02:58:49,0.001,0.0,0.0,0.0
03/06/2022,03:00:49,0.001,0.0,0.0,0.0
03/06/2022,03:02:49,0.001,0.0,0.0,0.0
03/06/2022,03:04:49,0.001,0.0,0.0,0.0
03/06/2022,03:06:48,0.000,0.0,0.0,0.0
03/06/2022,03:08:49,0.001,0.0,0.0,0.0
03/06/2022,03:10:49,0.000,0.0,0.0,0.0
03/06/2022,03:12:49,0.001,0.0,0.0,0.0
03/06/2022,03:14:49,0.000,0.0,0.0,0.0
03/06/2022,03:17:04,0.001,0.0,0.0,0.0
03/06/2022,03:18:50,0.002,0.0,0.0,0.0
03/06/2022,03:20:49,0.001,0.0,0.0,0.0
03/06/2022,03:22:49,0.001,0.0,0.0,0.0
03/06/2022,03:24:49,0.001,0.0,0.0,0.0
03/06/2022,03:26:57,0.001,0.0,0.0,0.0
03/06/2022,03:28:49,0.000,0.0,0.0,0.0
03/06/2022,03:30:49,0.002,0.0,0.0,0.0
03/06/2022,03:32:48,0.001,0.0,0.0,0.0
03/06/2022,03:34:49,0.002,0.0,0.0,0.0
03/06/2022,03:36:57,0.001,0.0,0.0,0.0
03/06/2022,03:38:49,0.001,0.0,0.0,0.0
03/06/2022,03:40:49,0.002,0.0,0.0,0.0
03/06/2022,03:42:50,0.002,0.0,0.0,0.0
03/06/2022,03:44:49,0.002,0.0,0.0,0.0
03/06/2022,03:46:49,0.002,0.0,0.0,0.0
03/06/2022,03:48:49,0.001,0.0,0.0,0.0
03/06/2022,03:50:49,0.003,0.0,0.0,0.0
03/06/2022,03:52:49,0.003,0.0,0.0,0.0
03/06/2022,03:54:49,0.003,0.0,0.0,0.0
03/06/2022,03:56:50,0.003,0.0,0.0,0.0
03/06/2022,03:58:49,0.003,0.0,0.0,0.0
03/06/2022,04:00:49,0.003,0.0,0.0,0.0
03/06/2022,04:02:49,0.004,0.0,0.0,0.0
03/06/2022,04:04:49,0.005,0.0,0.0,0.0
03/06/2022,04:06:49,0.004,0.0,0.0,0.0
03/06/2022,04:08:49,0.004,0.0,0.0,0.0
03/06/2022,04:10:49,0.004,0.0,0.0,0.0
03/06/2022,04:12:49,0.005,0.0,0.0,0.0
03/06/2022,04:14:49,0.004,0.0,0.0,0.0
03/06/2022,04:16:50,0.005,0.0,0.0,0.0
03/06/2022,04:18:49,0.006,0.0,0.0,0.0
03/06/2022,04:20:49,0.006,0.0,0.0,0.0
03/06/2022,04:22:49,0.007,0.0,0.0,0.0
03/06/2022,04:24:49,0.007,0.0,0.001,0.001
03/06/2022,04:26:49,0.007,0.0,0.001,0.0
03/06/2022,04:28:50,0.007,0.0,0.001,0.0
03/06/2022,04:30:49,0.008,0.0,0.001,0.0
03/06/2022,04:32:49,0.009,0.0,0.002,0.001
03/06/2022,04:34:49,0.009,0.0,0.002,0.0
03/06/2022,04:36:49,0.010,0.0,0.002,0.0
03/06/2022,04:38:49,0.010,0.0,0.002,0.0
03/06/2022,04:40:49,0.010,0.0,0.003,0.001
03/06/2022,04:42:49,0.011,0.0,0.003,0.0
03/06/2022,04:44:49,0.012,0.0,0.003,0.0
03/06/2022,04:47:05,0.012,0.0,0.004,0.001
03/06/2022,04:49:50,0.013,0.0,0.005,0.001
03/06/2022,04:51:49,0.014,0.0,0.005,0.0
03/06/2022,04:53:49,0.015,0.0,0.005,0.0
03/06/2022,04:55:49,0.016,0.0,0.006,0.001
03/06/2022,04:57:49,0.017,0.0,0.007,0.001
03/06/2022,04:59:57,0.019,0.0,0.007,0.0
03/06/2022,05:01:49,0.019,0.0,0.008,0.001
03/06/2022,05:03:49,0.020,0.0,0.008,0.0
03/06/2022,05:05:49,0.021,0.0,0.009,0.001
03/06/2022,05:07:50,0.021,0.0,0.01,0.001
03/06/2022,05:09:50,0.022,0.0,0.011,0.001
03/06/2022,05:11:49,0.024,0.0,0.011,0.0
03/06/2022,05:13:49,0.024,0.0,0.012,0.001
03/06/2022,05:15:49,0.026,0.0,0.013,0.001
03/06/2022,05:17:49,0.027,0.0,0.014,0.001
03/06/2022,05:19:49,0.029,0.0,0.015,0.001
03/06/2022,05:21:49,0.031,0.0,0.016,0.001
03/06/2022,05:23:49,0.030,0.0,0.017,0.001
03/06/2022,05:25:49,0.033,0.0,0.018,0.001
03/06/2022,05:27:49,0.036,0.0,0.019,0.001
03/06/2022,05:29:49,0.037,0.0,0.02,0.001
03/06/2022,05:31:49,0.039,0.0,0.022,0.002
03/06/2022,05:33:49,0.042,0.0,0.023,0.001
03/06/2022,05:35:49,0.044,0.0,0.024,0.001
03/06/2022,05:37:49,0.046,0.0,0.026,0.002
03/06/2022,05:39:49,0.049,0.0,0.027,0.001
03/06/2022,05:41:57,0.053,0.0,0.029,0.002
03/06/2022,05:44:50,0.058,0.0,0.032,0.003
03/06/2022,05:46:49,0.062,0.0,0.034,0.002
03/06/2022,05:48:52,0.065,0.0,0.036,0.002
03/06/2022,05:50:49,0.069,0.0,0.038,0.002
03/06/2022,05:52:49,0.073,0.0,0.041,0.003
03/06/2022,05:54:49,0.077,0.0,0.043,0.002
03/06/2022,05:56:49,0.080,0.0,0.046,0.003
03/06/2022,05:58:49,0.083,0.0,0.048,0.002
03/06/2022,06:00:58,0.087,0.0,0.051,0.003
03/06/2022,06:02:50,0.091,0.0,0.054,0.003
03/06/2022,06:04:49,0.095,0.0,0.057,0.003
03/06/2022,06:06:50,0.101,0.0,0.061,0.004
03/06/2022,06:08:49,0.107,0.0,0.064,0.003
03/06/2022,06:10:57,0.113,0.0,0.068,0.004
03/06/2022,06:13:49,0.121,0.0,0.074,0.006
03/06/2022,06:15:50,0.126,0.0,0.078,0.004
03/06/2022,06:17:49,0.133,0.0,0.082,0.004
03/06/2022,06:19:50,0.142,0.0,0.087,0.005
03/06/2022,06:21:49,0.151,0.0,0.091,0.004
03/06/2022,06:23:49,0.153,0.0,0.097,0.006
03/06/2022,06:25:57,0.160,0.0,0.102,0.005
03/06/2022,06:27:49,0.162,0.0,0.107,0.005
03/06/2022,06:29:49,0.172,0.0,0.113,0.006
03/06/2022,06:31:49,0.173,0.0,0.118,0.005
03/06/2022,06:33:49,0.186,0.0,0.124,0.006
03/06/2022,06:35:57,0.188,0.0,0.131,0.007
03/06/2022,06:37:49,0.178,0.0,0.137,0.006
03/06/2022,06:39:50,0.184,0.0,0.143,0.006
03/06/2022,06:41:49,0.185,0.0,0.149,0.006
03/06/2022,06:43:49,0.194,0.0,0.155,0.006
03/06/2022,06:45:58,0.207,0.0,0.163,0.008
03/06/2022,06:47:49,0.217,0.0,0.169,0.006
03/06/2022,06:49:49,0.204,0.0,0.176,0.007
03/06/2022,06:51:49,0.204,0.0,0.183,0.007
03/06/2022,06:53:50,0.205,0.0,0.189,0.006
03/06/2022,06:55:57,0.204,0.0,0.197,0.008
03/06/2022,06:57:50,0.208,0.0,0.203,0.006
03/06/2022,06:59:50,0.217,0.0,0.21,0.007
03/06/2022,07:01:57,0.227,1.0,0.218,0.008
03/06/2022,07:03:50,0.236,1.0,0.225,0.007
03/06/2022,07:05:49,0.244,1.0,0.233,0.008
03/06/2022,07:08:02,0.260,1.0,0.243,0.01
03/06/2022,07:09:50,0.263,1.0,0.25,0.007
03/06/2022,07:11:49,0.272,1.0,0.259,0.009
03/06/2022,07:13:58,0.284,1.0,0.269,0.01
03/06/2022,07:15:49,0.285,1.0,0.278,0.009
03/06/2022,07:17:49,0.288,1.0,0.288,0.01
03/06/2022,07:19:50,0.293,1.0,0.297,0.009
03/06/2022,07:21:50,0.294,1.0,0.307,0.01
03/06/2022,07:23:57,0.295,1.0,0.317,0.01
03/06/2022,07:25:49,0.297,1.0,0.327,0.01
03/06/2022,07:27:49,0.304,1.0,0.337,0.01
03/06/2022,07:29:58,0.319,1.0,0.348,0.011
03/06/2022,07:32:12,0.331,1.0,0.36,0.012
03/06/2022,07:34:50,0.342,1.0,0.375,0.015
03/06/2022,07:36:58,0.358,1.0,0.387,0.012
03/06/2022,07:38:49,0.370,1.0,0.399,0.012
03/06/2022,07:40:49,0.375,1.0,0.411,0.012
03/06/2022,07:42:49,0.376,1.0,0.424,0.013
03/06/2022,07:44:50,0.388,1.0,0.436,0.012
03/06/2022,07:46:49,0.412,1.0,0.45,0.014
03/06/2022,07:48:58,0.438,1.0,0.465,0.015
03/06/2022,07:50:49,0.457,1.0,0.479,0.014
03/06/2022,07:52:57,0.472,1.0,0.495,0.016
03/06/2022,07:54:49,0.489,1.0,0.51,0.015
03/06/2022,07:56:50,0.496,1.0,0.527,0.017
03/06/2022,07:58:58,0.494,1.0,0.544,0.017
03/06/2022,08:00:50,0.504,1.0,0.56,0.016
03/06/2022,08:02:49,0.529,1.0,0.577,0.017
03/06/2022,08:04:57,0.561,1.0,0.596,0.019
03/06/2022,08:06:50,0.583,1.0,0.614,0.018
03/06/2022,08:08:49,0.628,1.0,0.634,0.02
03/06/2022,08:10:50,0.611,1.0,0.655,0.021
03/06/2022,08:12:50,0.653,2.0,0.677,0.022
03/06/2022,08:14:58,0.714,2.0,0.701,0.024
03/06/2022,08:16:50,0.817,2.0,0.725,0.024
03/06/2022,08:18:49,0.835,2.0,0.752,0.027
03/06/2022,08:20:50,0.864,2.0,0.78,0.028
03/06/2022,08:22:50,0.884,2.0,0.81,0.03
03/06/2022,08:24:50,0.898,2.0,0.839,0.029
03/06/2022,08:26:50,0.913,2.0,0.869,0.03
03/06/2022,08:28:50,0.937,2.0,0.9,0.031
03/06/2022,08:30:50,0.932,2.0,0.931,0.031
03/06/2022,08:32:50,0.972,2.0,0.963,0.032
03/06/2022,08:34:49,0.990,2.0,0.996,0.033
03/06/2022,08:36:49,1.013,2.0,1.029,0.033
03/06/2022,08:38:50,1.028,2.0,1.063,0.034
03/06/2022,08:40:49,1.044,2.0,1.098,0.035
03/06/2022,08:42:49,1.049,2.0,1.133,0.035
03/06/2022,08:44:50,1.059,2.0,1.168,0.035
03/06/2022,08:46:49,1.064,2.0,1.203,0.035
03/06/2022,08:48:49,1.074,2.0,1.239,0.036
03/06/2022,08:50:49,1.087,2.0,1.275,0.036
03/06/2022,08:52:49,1.042,2.0,1.311,0.036
03/06/2022,08:54:50,1.116,3.0,1.347,0.036
03/06/2022,08:56:49,1.130,3.0,1.384,0.037
03/06/2022,08:58:49,1.159,3.0,1.422,0.038
03/06/2022,09:00:49,1.183,3.0,1.461,0.039
03/06/2022,09:02:50,1.199,3.0,1.501,0.04
03/06/2022,09:04:58,1.241,3.0,1.545,0.044
03/06/2022,09:06:50,1.262,3.0,1.584,0.039
03/06/2022,09:08:50,1.273,3.0,1.626,0.042
03/06/2022,09:10:50,1.297,3.0,1.669,0.043
03/06/2022,09:12:49,1.313,3.0,1.712,0.043
03/06/2022,09:14:49,1.337,3.0,1.756,0.044
03/06/2022,09:16:50,1.379,3.0,1.802,0.046
03/06/2022,09:18:49,1.359,3.0,1.848,0.046
03/06/2022,09:20:50,1.419,3.0,1.893,0.045
03/06/2022,09:22:49,1.426,3.0,1.941,0.048
03/06/2022,09:24:49,1.439,3.0,1.988,0.047
03/06/2022,09:26:50,1.445,3.0,2.037,0.049
03/06/2022,09:28:50,1.450,3.0,2.085,0.048
03/06/2022,09:30:49,1.465,3.0,2.132,0.047
03/06/2022,09:32:50,1.478,3.0,2.182,0.05
03/06/2022,09:34:49,1.495,3.0,2.23,0.048
03/06/2022,09:36:49,1.510,3.0,2.281,0.051
03/06/2022,09:38:50,1.293,3.0,2.329,0.048
03/06/2022,09:40:40,1.485,3.0,2.374,0.045
03/06/2022,09:42:51,1.251,3.0,2.425,0.051
03/06/2022,09:44:50,1.157,3.0,2.464,0.039
03/06/2022,09:46:50,1.184,3.0,2.504,0.04
03/06/2022,09:48:50,1.433,3.0,2.547,0.043
03/06/2022,09:50:50,1.605,4.0,2.598,0.051
03/06/2022,09:52:49,1.625,4.0,2.652,0.054
03/06/2022,09:54:49,1.632,4.0,2.706,0.054
03/06/2022,09:56:52,1.636,4.0,2.762,0.056
03/06/2022,09:58:50,1.658,4.0,2.816,0.054
03/06/2022,10:00:50,1.663,4.0,2.871,0.055
03/06/2022,10:02:50,1.687,4.0,2.926,0.055
03/06/2022,10:04:50,1.660,4.0,2.983,0.057
03/06/2022,10:06:50,1.666,4.0,3.037,0.054
03/06/2022,10:08:50,1.574,4.0,3.089,0.052
03/06/2022,10:10:49,1.382,3.0,3.143,0.054
03/06/2022,10:12:50,1.351,3.0,3.186,0.043
03/06/2022,10:14:49,1.259,3.0,3.23,0.044
03/06/2022,10:16:49,1.247,3.0,3.271,0.041
03/06/2022,10:18:49,1.184,3.0,3.311,0.04
03/06/2022,10:20:58,1.121,3.0,3.352,0.041
03/06/2022,10:22:50,1.078,2.0,3.386,0.034
03/06/2022,10:24:50,1.039,2.0,3.422,0.036
03/06/2022,10:26:49,1.021,2.0,3.456,0.034
03/06/2022,10:28:49,1.024,2.0,3.49,0.034
03/06/2022,10:30:50,1.040,2.0,3.524,0.034
03/06/2022,10:32:58,1.069,2.0,3.562,0.038
03/06/2022,10:34:49,1.082,2.0,3.595,0.033
03/06/2022,10:36:49,1.089,3.0,3.632,0.037
03/06/2022,10:38:58,1.148,3.0,3.671,0.039
03/06/2022,10:40:50,1.185,3.0,3.708,0.037
03/06/2022,10:42:50,1.164,3.0,3.747,0.039
03/06/2022,10:44:50,1.171,3.0,3.786,0.039
03/06/2022,10:46:50,1.119,3.0,3.824,0.038
03/06/2022,10:48:50,1.064,2.0,3.861,0.037
03/06/2022,10:50:58,1.044,2.0,3.898,0.037
03/06/2022,10:52:49,1.004,2.0,3.93,0.032
03/06/2022,10:54:50,0.947,2.0,3.962,0.032
03/06/2022,10:56:50,0.872,2.0,3.993,0.031
03/06/2022,10:58:51,0.793,2.0,4.02,0.027
03/06/2022,11:00:58,0.782,2.0,4.048,0.028
03/06/2022,11:02:50,0.822,2.0,4.073,0.025
03/06/2022,11:04:50,0.800,2.0,4.1,0.027
03/06/2022,11:06:49,0.745,2.0,4.126,0.026
03/06/2022,11:08:58,0.718,2.0,4.152,0.026
03/06/2022,11:10:49,0.721,2.0,4.174,0.022
03/06/2022,11:12:50,0.726,2.0,4.198,0.024
03/06/2022,11:14:50,0.725,2.0,4.223,0.025
03/06/2022,11:16:50,0.744,2.0,4.247,0.024
03/06/2022,11:18:50,0.804,2.0,4.273,0.026
03/06/2022,11:20:50,0.915,2.0,4.301,0.028
03/06/2022,11:22:50,1.046,2.0,4.334,0.033
03/06/2022,11:24:50,1.129,3.0,4.37,0.036
03/06/2022,11:26:50,1.393,3.0,4.414,0.044
03/06/2022,11:28:50,1.981,5.0,4.477,0.063
03/06/2022,11:30:49,1.510,3.0,4.542,0.065
03/06/2022,11:32:50,2.163,5.0,4.603,0.061
03/06/2022,11:34:50,2.151,5.0,4.665,0.062
03/06/2022,11:36:49,2.472,6.0,4.742,0.077
03/06/2022,11:38:59,2.280,5.0,4.829,0.087
03/06/2022,11:40:50,2.006,5.0,4.899,0.07
03/06/2022,11:42:49,1.409,3.0,4.955,0.056
03/06/2022,11:44:50,1.444,3.0,5.002,0.047
03/06/2022,11:46:50,1.724,4.0,5.056,0.054
03/06/2022,11:48:50,1.410,3.0,5.105,0.049
03/06/2022,11:50:50,1.851,4.0,5.156,0.051
03/06/2022,11:52:50,2.355,5.0,5.215,0.059
03/06/2022,11:54:50,2.031,5.0,5.289,0.074
03/06/2022,11:56:50,2.266,5.0,5.362,0.073
03/06/2022,11:58:49,1.890,4.0,5.43,0.068
03/06/2022,12:00:50,2.351,5.0,5.504,0.074
03/06/2022,12:02:50,1.621,4.0,5.567,0.063
03/06/2022,12:04:50,2.289,5.0,5.632,0.065
03/06/2022,12:06:49,1.464,3.0,5.692,0.06
03/06/2022,12:08:50,2.145,5.0,5.759,0.067
03/06/2022,12:10:50,2.163,5.0,5.83,0.071
03/06/2022,12:12:50,2.188,5.0,5.903,0.073
03/06/2022,12:14:50,2.263,5.0,5.977,0.074
03/06/2022,12:16:50,2.246,5.0,6.052,0.075
03/06/2022,12:18:50,2.242,5.0,6.126,0.074
03/06/2022,12:20:50,2.200,5.0,6.201,0.075
03/06/2022,12:22:50,2.277,5.0,6.276,0.075
03/06/2022,12:24:58,2.188,5.0,6.353,0.077
03/06/2022,12:26:50,2.217,5.0,6.42,0.067
03/06/2022,12:28:50,2.266,5.0,6.496,0.076
03/06/2022,12:30:49,2.260,5.0,6.571,0.075
03/06/2022,12:32:49,2.218,5.0,6.646,0.075
03/06/2022,12:34:50,2.267,5.0,6.721,0.075
03/06/2022,12:36:49,2.214,5.0,6.795,0.074
03/06/2022,12:38:50,2.160,5.0,6.867,0.072
03/06/2022,12:40:50,1.961,5.0,6.928,0.061
03/06/2022,12:42:58,1.510,3.0,6.989,0.061
03/06/2022,12:44:50,1.247,3.0,7.03,0.041
03/06/2022,12:46:50,1.317,3.0,7.073,0.043
03/06/2022,12:48:50,1.309,3.0,7.117,0.044
03/06/2022,12:50:50,1.218,3.0,7.159,0.042
03/06/2022,12:52:50,1.136,3.0,7.198,0.039
03/06/2022,12:54:49,1.076,2.0,7.235,0.037
03/06/2022,12:56:50,1.045,2.0,7.27,0.035
03/06/2022,12:58:49,1.044,2.0,7.305,0.035
03/06/2022,13:00:50,1.013,2.0,7.339,0.034
03/06/2022,13:02:50,1.002,2.0,7.373,0.034
03/06/2022,13:04:49,0.995,2.0,7.406,0.033
03/06/2022,13:06:50,1.028,2.0,7.44,0.034
03/06/2022,13:08:50,1.006,2.0,7.474,0.034
03/06/2022,13:10:49,0.973,2.0,7.506,0.032
03/06/2022,13:12:50,0.933,2.0,7.538,0.032
03/06/2022,13:14:50,0.861,2.0,7.568,0.03
03/06/2022,13:16:50,0.834,2.0,7.596,0.028
03/06/2022,13:18:50,0.818,2.0,7.624,0.028
03/06/2022,13:20:50,0.779,2.0,7.651,0.027
03/06/2022,13:22:50,0.742,2.0,7.676,0.025
03/06/2022,13:24:50,0.679,2.0,7.7,0.024
03/06/2022,13:26:52,0.607,1.0,7.721,0.021
03/06/2022,13:28:50,0.582,1.0,7.741,0.02
03/06/2022,13:30:50,0.634,1.0,7.761,0.02
03/06/2022,13:32:51,0.721,2.0,7.784,0.023
03/06/2022,13:34:50,0.784,2.0,7.809,0.025
03/06/2022,13:36:58,0.815,2.0,7.837,0.028
03/06/2022,13:38:50,0.784,2.0,7.862,0.025
03/06/2022,13:40:50,0.694,2.0,7.887,0.025
03/06/2022,13:42:50,0.606,1.0,7.909,0.022
03/06/2022,13:44:50,0.566,1.0,7.928,0.019
03/06/2022,13:46:50,0.569,1.0,7.947,0.019
03/06/2022,13:48:50,0.592,1.0,7.966,0.019
03/06/2022,13:50:52,0.618,1.0,7.987,0.021
03/06/2022,13:52:58,0.603,1.0,8.008,0.021
03/06/2022,13:54:50,0.583,1.0,8.027,0.019
03/06/2022,13:56:50,0.560,1.0,8.046,0.019
03/06/2022,13:58:50,0.503,1.0,8.063,0.017
03/06/2022,14:00:48,0.453,1.0,8.079,0.016
03/06/2022,14:02:50,0.425,1.0,8.094,0.015
03/06/2022,14:04:50,0.391,1.0,8.108,0.014
03/06/2022,14:06:50,0.355,1.0,8.12,0.012
03/06/2022,14:08:50,0.347,1.0,8.132,0.012
03/06/2022,14:10:58,0.350,1.0,8.144,0.012
03/06/2022,14:12:50,0.370,1.0,8.155,0.011
03/06/2022,14:14:50,0.388,1.0,8.168,0.013
03/06/2022,14:16:51,0.382,1.0,8.181,0.013
03/06/2022,14:18:50,0.385,1.0,8.193,0.012
03/06/2022,14:20:50,0.413,1.0,8.207,0.014
03/06/2022,14:22:51,0.442,1.0,8.221,0.014
03/06/2022,14:24:50,0.455,1.0,8.236,0.015
03/06/2022,14:26:50,0.463,1.0,8.251,0.015
03/06/2022,14:28:51,0.461,1.0,8.267,0.016
03/06/2022,14:30:50,0.446,1.0,8.282,0.015
03/06/2022,14:32:51,0.440,1.0,8.297,0.015
03/06/2022,14:34:50,0.460,1.0,8.312,0.015
03/06/2022,14:36:50,0.501,1.0,8.328,0.016
03/06/2022,14:38:50,0.518,1.0,8.345,0.017
03/06/2022,14:40:51,0.491,1.0,8.362,0.017
03/06/2022,14:42:51,0.414,1.0,8.377,0.015
03/06/2022,14:44:50,0.380,1.0,8.39,0.013
03/06/2022,14:46:50,0.381,1.0,8.403,0.013
03/06/2022,14:48:50,0.390,1.0,8.415,0.012
03/06/2022,14:50:50,0.400,1.0,8.429,0.014
03/06/2022,14:52:50,0.403,1.0,8.442,0.013
03/06/2022,14:54:50,0.396,1.0,8.455,0.013
03/06/2022,14:56:50,0.375,1.0,8.468,0.013
03/06/2022,14:58:50,0.346,1.0,8.48,0.012
03/06/2022,15:00:59,0.321,1.0,8.492,0.012
03/06/2022,15:02:51,0.311,1.0,8.502,0.01
03/06/2022,15:04:50,0.307,1.0,8.512,0.01
03/06/2022,15:06:50,0.299,1.0,8.522,0.01
03/06/2022,15:08:58,0.294,1.0,8.533,0.011
03/06/2022,15:10:50,0.286,1.0,8.542,0.009
03/06/2022,15:12:50,0.260,1.0,8.551,0.009
03/06/2022,15:14:50,0.235,1.0,8.559,0.008
03/06/2022,15:16:50,0.209,0.0,8.567,0.008
03/06/2022,15:18:52,0.186,0.0,8.573,0.006
03/06/2022,15:20:51,0.174,0.0,8.579,0.006
03/06/2022,15:22:51,0.171,0.0,8.585,0.006
03/06/2022,15:24:50,0.177,0.0,8.591,0.006
03/06/2022,15:26:59,0.188,0.0,8.597,0.006
03/06/2022,15:28:50,0.197,0.0,8.603,0.006
03/06/2022,15:30:58,0.196,0.0,8.61,0.007
03/06/2022,15:32:51,0.189,0.0,8.616,0.006
03/06/2022,15:34:50,0.178,0.0,8.622,0.006
03/06/2022,15:36:51,0.163,0.0,8.628,0.006
03/06/2022,15:38:50,0.151,0.0,8.633,0.005
03/06/2022,15:40:50,0.140,0.0,8.638,0.005
03/06/2022,15:42:51,0.131,0.0,8.643,0.005
03/06/2022,15:45:23,0.122,0.0,8.648,0.005
03/06/2022,15:47:59,0.116,0.0,8.653,0.005
03/06/2022,15:49:50,0.110,0.0,8.656,0.003
03/06/2022,15:51:50,0.104,0.0,8.66,0.004
03/06/2022,15:53:50,0.102,0.0,8.664,0.004
03/06/2022,15:55:58,0.098,0.0,8.667,0.003
03/06/2022,15:57:50,0.093,0.0,8.67,0.003
03/06/2022,15:59:59,0.087,0.0,8.673,0.003
03/06/2022,16:01:50,0.084,0.0,8.676,0.003
03/06/2022,16:03:51,0.083,0.0,8.679,0.003
03/06/2022,16:05:50,0.086,0.0,8.682,0.003
03/06/2022,16:07:59,0.094,0.0,8.685,0.003
03/06/2022,16:09:50,0.110,0.0,8.688,0.003
03/06/2022,16:11:50,0.133,0.0,8.692,0.004
03/06/2022,16:13:50,0.154,0.0,8.697,0.005
03/06/2022,16:15:50,0.161,0.0,8.702,0.005
03/06/2022,16:17:50,0.153,0.0,8.707,0.005
03/06/2022,16:19:51,0.139,0.0,8.712,0.005
03/06/2022,16:21:50,0.129,0.0,8.717,0.005
03/06/2022,16:23:50,0.120,0.0,8.721,0.004
03/06/2022,16:25:50,0.112,0.0,8.725,0.004
03/06/2022,16:27:50,0.112,0.0,8.728,0.003
03/06/2022,16:29:50,0.117,0.0,8.732,0.004
03/06/2022,16:31:58,0.119,0.0,8.736,0.004
03/06/2022,16:33:50,0.119,0.0,8.74,0.004
03/06/2022,16:35:51,0.121,0.0,8.744,0.004
03/06/2022,16:37:51,0.120,0.0,8.748,0.004
03/06/2022,16:39:50,0.118,0.0,8.752,0.004
03/06/2022,16:41:50,0.119,0.0,8.756,0.004
03/06/2022,16:43:59,0.115,0.0,8.76,0.004
03/06/2022,16:45:50,0.112,0.0,8.764,0.004
03/06/2022,16:47:51,0.110,0.0,8.767,0.003
03/06/2022,16:49:51,0.105,0.0,8.771,0.004
03/06/2022,16:51:50,0.107,0.0,8.774,0.003
03/06/2022,16:53:50,0.113,0.0,8.778,0.004
03/06/2022,16:55:50,0.118,0.0,8.782,0.004
03/06/2022,16:57:50,0.118,0.0,8.786,0.004
03/06/2022,16:59:50,0.111,0.0,8.79,0.004
03/06/2022,17:01:58,0.101,0.0,8.794,0.004
03/06/2022,17:03:51,0.093,0.0,8.797,0.003
03/06/2022,17:05:51,0.085,0.0,8.799,0.002
03/06/2022,17:07:50,0.080,0.0,8.802,0.003
03/06/2022,17:09:50,0.080,0.0,8.805,0.003
03/06/2022,17:11:50,0.081,0.0,8.808,0.003
03/06/2022,17:13:51,0.082,0.0,8.81,0.002
03/06/2022,17:15:50,0.076,0.0,8.813,0.003
03/06/2022,17:17:59,0.068,0.0,8.816,0.003
03/06/2022,17:19:51,0.062,0.0,8.818,0.002
03/06/2022,17:21:50,0.058,0.0,8.82,0.002
03/06/2022,17:23:51,0.057,0.0,8.822,0.002
03/06/2022,17:25:50,0.058,0.0,8.823,0.001
03/06/2022,17:27:51,0.064,0.0,8.825,0.002
03/06/2022,17:29:51,0.072,0.0,8.828,0.003
03/06/2022,17:31:50,0.080,0.0,8.83,0.002
03/06/2022,17:33:50,0.085,0.0,8.833,0.003
03/06/2022,17:35:50,0.084,0.0,8.836,0.003
03/06/2022,17:37:58,0.079,0.0,8.839,0.003
03/06/2022,17:39:51,0.075,0.0,8.841,0.002
03/06/2022,17:41:50,0.073,0.0,8.844,0.003
03/06/2022,17:43:50,0.073,0.0,8.846,0.002
03/06/2022,17:45:50,0.073,0.0,8.848,0.002
03/06/2022,17:47:51,0.070,0.0,8.851,0.003
03/06/2022,17:49:50,0.064,0.0,8.853,0.002
03/06/2022,17:51:51,0.057,0.0,8.855,0.002
03/06/2022,17:53:51,0.057,0.0,8.857,0.002
03/06/2022,17:55:50,0.060,0.0,8.859,0.002
03/06/2022,17:57:50,0.066,0.0,8.861,0.002
03/06/2022,17:59:51,0.074,0.0,8.863,0.002
03/06/2022,18:01:51,0.074,0.0,8.866,0.003
03/06/2022,18:03:50,0.070,0.0,8.868,0.002
03/06/2022,18:05:51,0.068,0.0,8.87,0.002
03/06/2022,18:07:51,0.070,0.0,8.873,0.003
03/06/2022,18:09:51,0.073,0.0,8.875,0.002
03/06/2022,18:11:51,0.073,0.0,8.878,0.003
03/06/2022,18:13:50,0.070,0.0,8.88,0.002
03/06/2022,18:15:50,0.063,0.0,8.882,0.002
03/06/2022,18:17:50,0.057,0.0,8.884,0.002
03/06/2022,18:19:50,0.053,0.0,8.886,0.002
03/06/2022,18:21:50,0.052,0.0,8.888,0.002
03/06/2022,18:23:50,0.052,0.0,8.889,0.001
03/06/2022,18:25:51,0.048,0.0,8.891,0.002
03/06/2022,18:27:51,0.047,0.0,8.893,0.002
03/06/2022,18:29:50,0.048,0.0,8.894,0.001
03/06/2022,18:31:50,0.050,0.0,8.896,0.002
03/06/2022,18:33:50,0.051,0.0,8.898,0.002
03/06/2022,18:35:51,0.050,0.0,8.899,0.001
03/06/2022,18:37:51,0.050,0.0,8.901,0.002
03/06/2022,18:39:50,0.051,0.0,8.903,0.002
03/06/2022,18:41:50,0.050,0.0,8.904,0.001
03/06/2022,18:43:51,0.048,0.0,8.906,0.002
03/06/2022,18:45:51,0.046,0.0,8.908,0.002
03/06/2022,18:47:50,0.045,0.0,8.909,0.001
03/06/2022,18:49:50,0.043,0.0,8.911,0.002
03/06/2022,18:51:51,0.041,0.0,8.912,0.001
03/06/2022,18:53:51,0.039,0.0,8.913,0.001
03/06/2022,18:55:59,0.038,0.0,8.915,0.002
03/06/2022,18:57:50,0.036,0.0,8.916,0.001
03/06/2022,18:59:50,0.035,0.0,8.917,0.001
03/06/2022,19:01:51,0.034,0.0,8.918,0.001
03/06/2022,19:03:51,0.032,0.0,8.919,0.001
03/06/2022,19:05:50,0.029,0.0,8.92,0.001
03/06/2022,19:07:51,0.029,0.0,8.921,0.001
03/06/2022,19:09:51,0.027,0.0,8.922,0.001
03/06/2022,19:11:51,0.026,0.0,8.923,0.001
03/06/2022,19:13:59,0.024,0.0,8.924,0.001
03/06/2022,19:15:50,0.023,0.0,8.925,0.001
03/06/2022,19:17:50,0.021,0.0,8.925,0.0
03/06/2022,19:19:50,0.019,0.0,8.926,0.001
03/06/2022,19:21:50,0.019,0.0,8.927,0.001
03/06/2022,19:23:50,0.017,0.0,8.927,0.0
03/06/2022,19:25:59,0.015,0.0,8.928,0.001
03/06/2022,19:27:51,0.014,0.0,8.928,0.0
03/06/2022,19:29:51,0.013,0.0,8.929,0.001
03/06/2022,19:31:58,0.011,0.0,8.929,0.0
03/06/2022,19:33:51,0.010,0.0,8.929,0.0
03/06/2022,19:35:50,0.010,0.0,8.93,0.001
03/06/2022,19:37:50,0.008,0.0,8.93,0.0
03/06/2022,19:39:51,0.007,0.0,8.93,0.0